This demonstration page uses our WeatherBlox Daily Observations layout. Learn more.

Left ArrowRight Arrow

41.55636, -103.73856

Hourly Observations for October 22, 2018

Temp ( °F °C ) Dew Point ( °F °C ) Humidity (%) Winds ( mph kmh ) Pressure ( in mb ) Visibility ( mi km ) Precip ( " mm )
12:58 am 00:58 Clear 41 4.9 32 undefined 71 71 W 7 11 30.06 1018 10 16 N/A
1:58 am 01:58 Clear 41 5 32 -0.2 69 69 W 7 11 30.06 1018 10 16 N/A
2:58 am 02:58 Clear 47 8.3 33 0.4 58 58 WSW 12 19 30.04 1017 10 16 N/A
3:58 am 03:58 Clear 42 5.7 31 -0.3 66 66 W 9 15 30.06 1018 10 16 N/A
4:58 am 04:58 Clear 40 4.5 32 -0.2 72 72 W 7 11 30.07 1018 10 16 N/A
5:58 am 05:58 Clear 40 4.5 32 -0.1 72 72 W 10 17 30.11 1020 10 16 N/A
6:58 am 06:58 Clear 40 4.7 32 undefined 72 72 WNW 9 15 30.13 1020 10 16 N/A
7:58 am 07:58 Sunny 44 6.4 33 0.6 67 67 NW 6 9 30.16 1021 10 16 N/A
8:58 am 08:58 Sunny 48 8.8 35 1.9 62 62 N N/A 30.16 1021 10 16 N/A
9:58 am 09:58 Hazy 55 13 37 2.6 50 50 ESE 6 9 30.15 1021 5 8 N/A
10:58 am 10:58 Sunny 62 16.4 36 2.3 39 39 NE 8 13 30.15 1021 10 16 N/A
11:58 am 11:58 Partly Cloudy 64 17.8 37 2.8 37 37 N 5 7 30.16 1021 10 16 N/A
12:58 pm 12:58 Partly Cloudy 65 18.5 35 1.7 33 33 NE 7 11 30.14 1021 10 16 N/A
1:58 pm 13:58 Mostly Sunny 64 18 35 1.7 34 34 NE 6 9 30.14 1021 10 16 N/A
2:58 pm 14:58 Sunny 67 19.2 37 2.5 33 33 ESE 8 13 30.11 1020 10 16 N/A
3:58 pm 15:58 Hazy 64 18 37 2.5 36 36 E 7 11 30.14 1021 4 6 N/A
4:58 pm 16:58 Partly Cloudy 64 17.7 37 2.5 36 36 ESE 10 17 30.14 1021 8 13 N/A
5:58 pm 17:58 Sunny 55 12.8 36 2.4 49 49 ESE 8 13 30.18 1022 9 14 N/A
6:58 pm 18:58 Mostly Clear 53 11.4 37 2.5 55 55 ESE 12 19 30.22 1023 7 11 N/A
7:58 pm 19:58 Cloudy 51 10.3 36 2.4 58 58 SE 12 19 30.23 1024 10 16 N/A
8:58 pm 20:58 Cloudy 48 9.1 35 1.8 61 61 SE 9 15 30.23 1024 10 16 N/A
9:58 pm 21:58 Clear 47 8.3 34 1.2 61 61 SE 13 20 30.22 1023 10 16 N/A
10:58 pm 22:58 Mostly Clear 43 6.1 33 0.6 68 68 SSE 8 13 30.22 1023 10 16 N/A
11:58 pm 23:58 Clear 43 6.2 34 1.3 71 71 SSE 7 11 30.21 1023 10 16 N/A

Powered by AerisWeather